Regional Weather Roundup
Issued by NWS Charleston, SC

Current Version | Previous Version | Graphics & Text | Print | Product List | Glossary On
Versions: 1 2 3 4 5 6 7 8 9 10 11 12 13 14 15 16 17 18 19 20 21 22 23 24 25 26 27 28 29 30 31 32 33 34 35 36 37 38 39 40 41 42 43 44 45 46 47 48 49 50
000
ASUS42 KCHS 200426
RWRCHS

REGIONAL WEATHER ROUNDUP
NATIONAL WEATHER SERVICE CHARLESTON SC
1200 AM EDT WED SEP 20 2017

NOTE: "FAIR" INDICATES FEW OR NO CLOUDS BELOW 12,000 FEET WITH NO
SIGNIFICANT WEATHER AND/OR OBSTRUCTIONS TO VISIBILITY.

NOT ALL STATIONS ARE QUALITY CONTROLLED. USE DATA WITH CAUTION...
ESPECIALLY DEWPOINT OBSERVATIONS.

SCZ027-030-031-034>040-042>050-200500-
...SOUTHEAST SOUTH CAROLINA...

CITY           SKY/WX    TMP DP  RH WIND       PRES   REMARKS
N CHARLESTON   CLEAR     74  72  93 S5        29.97S
WATERFRONT PRK   N/A     77  74  91 VRB2      29.82S
JOHNS ISLAND   FAIR      73  72  94 CALM      29.98S
PINOPOLIS        N/A     75  72  88 CALM      29.90S
MONCKS CORNER  FAIR      68  68 100 CALM      29.97F
SUMMERVILLE    FAIR      72  70  94 CALM      29.98F
BEAUFORT MCAS  CLEAR     77  75  93 CALM      29.98S
BEAUFORT ARPT  FAIR      75  72  88 S3        29.98R
HILTON HEAD IS CLEAR     77  73  88 CALM      29.99S
WALTERBORO     CLEAR     72  70  94 CALM      29.98S
ALLENDALE      NOT AVBL

...SOUTHERN MIDLANDS AND PEE DEE...

CITY           SKY/WX    TMP DP  RH WIND       PRES   REMARKS
GEORGETOWN     FAIR      68  66  94 CALM      29.98S
KINGSTREE      FAIR      66  64  94 CALM      29.96F
ORANGEBURG     CLEAR     70  68  93 CALM      29.97S
BARNWELL       FAIR      73  70  88 CALM      29.97F
AIKEN          FAIR      68  66  94 CALM      30.01F
MANNING        FAIR      70  61  73 CALM      29.97S
COLUMBIA       CLEAR     71  67  87 CALM      29.97R
SUMTER         CLEAR     72  67  84 CALM      29.95S
FLORENCE       CLEAR     69  68  96 CALM      29.97S
MYRTLE BEACH   CLEAR     72  67  84 CALM      29.98S
N MYRTLE BEACH CLEAR     72  69  90 CALM      29.96S

$$

GAZ063-065-086>088-099>101-113>116-118-119-134>141-150-200500-
...SOUTHEAST GEORGIA...

CITY           SKY/WX    TMP DP  RH WIND       PRES   REMARKS
SAVANNAH ARPT  CLEAR     75  71  87 S5        29.99R
HUNTER AAF     CLEAR     77  72  84 S3        29.96S
FORT STEWART   CLEAR     75  69  84 CALM      29.96S
STATESBORO     CLEAR     74  69  84 SE3       29.98R
SYLVANIA       CLEAR     75  73  92 CALM      29.99S
CLAXTON        FAIR      73  72  95 CALM      29.98S

...CSRA...CENTRAL AND FAR SOUTHEAST GEORGIA...

CITY           SKY/WX    TMP DP  RH WIND       PRES   REMARKS
THOMSON        PTCLDY    70  69  95 CALM      30.03R
AUGUSTA-BUSH   PTCLDY    71  70  96 CALM      29.96S
AUGUSTA-DANIEL PTCLDY    77  70  79 SE5       29.98S
SWAINSBORO     FAIR      73  72  94 CALM      29.99R
VIDALIA        CLEAR     77  70  78 S6        29.98S
EASTMAN        FAIR      72  72 100 CALM      30.01S
HAZLEHURST     FAIR      78  63  61 S5        29.97S
ALMA           CLEAR     76  70  82 S6        29.98S
WAYCROSS       CLEAR     76  70  80 S6        29.99S
JESUP          NOT AVBL
BAXLEY         FAIR      73  73 100 S3        29.99R
BRUNSWICK      CLEAR     79  70  73 S3        30.00S
SAINT SIMONS   CLEAR     81  73  76 S7        29.99S

$$

SCZ027-028-034-036>038-045-046-048>050-GAZ119-141-200500-
...LAKE AND SUPPLEMENTAL COASTAL OBSERVATIONS...

STATION/POSITION TIME  TEMP    WIND        PRES    WAVE   SWELL
                       AIR SEA DIR/SP/G            HT/PER HT/PER/DIR
                 (UTC) (F)     (DEG/KT/KT) (MB)    (FT/S) (FT/S/D)
WINYAH BAY       NOT AVBL
LAKE MURRAY      0320   76        CALM     1013.9
ACE BASIN NERRS  0245   74        CALM     1015.0
FORT PULASKI     0342   78 80  200/  2/  4 1015.6S
SAPELO ISLAND    0300   79        CALM     1015.0

$$

ANZ835-935-AMZ111-154-330-350-352-354-370-450-454-472-200500-
...C-MAN AND BUOY OBSERVATIONS...

STATION/POSITION TIME  TEMP    WIND        PRES    WAVE   SWELL
                       AIR SEA DIR/SP/G            HT/PER HT/PER/DIR
                 (UTC) (F)     (DEG/KT/KT) (MB)    (FT/S) (FT/S/D)
BUOY 41004       0400   80 83  220/  4/  6 1014.6
BUOY 41008       0350   80 80  170/ 10/ 12 1015.2S   2/11   2/ 60/11
FOLLY BEACH CMAN 0400   78     230/  5/  6 1015.6F
CAPERS NEARSHORE 0308   77 80  240/  8/ 12 1014.8R
FRIPP NEARSHORE  0308   79     200/  6/  8 1021.6R


STATION/POSITION TIME  TEMP    WIND        PRES    WAVE   SWELL
                       AIR SEA DIR/SP/G            HT/PER HT/PER/DIR
                 (UTC) (F)     (DEG/KT/KT) (MB)    (FT/S) (FT/S/D)
5E ST. MARYS GA  0400      81                N/A     2/13   2/100/13
FRYING PAN BUOY  0400   80 81  260/ 10/ 12 1014.1
BUOY 41025       0350   75 74  310/ 16/ 19 1012.4S   7/11   5/ 60/11
CAPE LOOKOUT NC  0400   75     280/  5/  5 1013.3F
BUOY 41002       0350   79 80  260/  6/  8 1015.2R   9/11   8/ 30/11
BUOY 41010       0400      84   50/  2/  6 1015.6
ST AUGUSTINE FL  0400   81 82  140/ 10/ 10 1016.2R


$$




USA.gov is the U.S. government's official web portal to all federal, state and local government web resources and services.